K5NOC-12 Weather Reports


time (UTC)temp
C
wind
direction
speed
KPH
gust
KPH
rain 1hr
cm
rain 24hr
cm
rain mn
cm
humidity
%
barometer
mb
20260906212226 33 127 14.5 19.3 0.00 0.00 0.00 31 1016.5
20260906210726 34 112 3.2 9.7 0.00 0.00 0.00 32 1016.7
20260906205226 34 125 9.7 19.3 0.00 0.00 0.00 32 1016.7
20260906203725 33 95 4.8 16.1 0.00 0.00 0.00 33 1016.9
20260906202225 33 115 8.0 14.5 0.00 0.00 0.00 34 1017.0
20260906200725 33 99 14.5 20.9 0.00 0.00 0.00 35 1017.0
20260906195225 32 112 8.0 4.8 0.00 0.00 0.00 36 1017.4
20260906193725 33 136 8.0 8.0 0.00 0.00 0.00 36 1017.6
20260906192225 32 117 8.0 4.8 0.00 0.00 0.00 37 1017.7
20260906190725 33 126 3.2 4.8 0.00 0.00 0.00 36 1017.9
20260906185225 33 143 8.0 16.1 0.00 0.00 0.00 36 1018.1
20260906183725 33 152 16.1 19.3 0.00 0.00 0.00 36 1018.4
20260906182225 32 112 8.0 14.5 0.00 0.00 0.00 38 1018.6
20260906180724 32 111 9.7 11.3 0.00 0.00 0.00 38 1018.8
20260906175224 32 157 9.7 9.7 0.00 0.00 0.00 39 1019.0
20260906173724 32 121 9.7 14.5 0.00 0.00 0.00 40 1019.2
20260906172224 32 162 16.1 22.5 0.00 0.00 0.00 41 1019.3
20260906170724 31 122 9.7 9.7 0.00 0.00 0.00 42 1019.3
20260906165224 31 145 12.9 19.3 0.00 0.00 0.00 43 1019.3
20260906163724 31 171 8.0 9.7 0.00 0.00 0.00 46 1019.5
20260906162224 31 158 24.1 24.1 0.00 0.00 0.00 47 1019.6
20260906160723 30 139 24.1 24.1 0.00 0.00 0.00 46 1019.5
20260906155223 30 158 24.1 24.1 0.00 0.00 0.00 49 1019.1
20260906153723 29 205 9.7 16.1 0.00 0.00 0.00 50 1019.1
20260906152223 28 142 9.7 19.3 0.00 0.00 0.00 52 1019.1
20260906150723 28 149 12.9 22.5 0.00 0.00 0.00 52 1019.0
20260906145223 28 149 11.3 16.1 0.00 0.00 0.00 53 1019.1
20260906143723 27 155 11.3 12.9 0.00 0.00 0.00 54 1019.1
20260906142222 27 178 9.7 14.5 0.00 0.00 0.00 55 1019.0
20260906140722 26 165 4.8 9.7 0.00 0.00 0.00 57 1018.9
20260906135222 25 153 4.8 8.0 0.00 0.00 0.00 59 1018.8
20260906133722 24 153 9.7 12.9 0.00 0.00 0.00 60 1018.5
20260906132222 23 149 9.7 16.1 0.00 0.00 0.00 62 1018.4
20260906130722 23 156 4.8 8.0 0.00 0.00 0.00 62 1018.3
20260906125222 23 149 8.0 8.0 0.00 0.00 0.00 63 1018.3
20260906123722 23 135 4.8 4.8 0.00 0.00 0.00 62 1018.3
20260906122222 23 116 1.6 4.8 0.00 0.00 0.00 61 1018.1
20260906120722 23 118 4.8 4.8 0.00 0.00 0.00 61 1018.0
20260906115221 23 124 3.2 8.0 0.00 0.00 0.00 60 1017.9
20260906113721 23 118 3.2 4.8 0.00 0.00 0.00 60 1018.0
20260906112221 23 140 3.2 4.8 0.00 0.00 0.00 60 1017.9
20260906110721 23 130 3.2 4.8 0.00 0.00 0.00 59 1018.0
20260906105221 23 114 3.2 4.8 0.00 0.00 0.00 59 1017.9
20260906103721 24 109 3.2 3.2 0.00 0.00 0.00 58 1017.8
20260906102221 24 144 3.2 3.2 0.00 0.00 0.00 58 1017.6
20260906100721 24 158 4.8 8.0 0.00 0.00 0.00 57 1017.5
20260906095220 25 161 3.2 4.8 0.00 0.00 0.00 56 1017.6
20260906093720 25 131 3.2 4.8 0.00 0.00 0.00 56 1017.6
20260906092220 25 144 4.8 8.0 0.00 0.00 0.00 56 1017.6
20260906090720 25 145 0.0 4.8 0.00 0.00 0.00 55 1017.7
20260906085220 25 128 4.8 11.3 0.00 0.00 0.00 54 1017.7
20260906083720 25 163 3.2 4.8 0.00 0.00 0.00 54 1017.7
20260906082220 25 156 8.0 11.3 0.00 0.00 0.00 53 1017.5
20260906080720 25 142 8.0 8.0 0.00 0.00 0.00 53 1017.6
20260906075219 26 147 8.0 11.3 0.00 0.00 0.00 53 1017.6
20260906073719 26 141 8.0 14.5 0.00 0.00 0.00 52 1017.6
20260906072219 26 128 4.8 11.3 0.00 0.00 0.00 52 1017.6
20260906070719 26 135 8.0 8.0 0.00 0.00 0.00 51 1017.8
20260906065219 26 151 8.0 8.0 0.00 0.00 0.00 50 1017.8
20260906063719 26 126 9.7 19.3 0.00 0.00 0.00 50 1017.7
20260906062219 27 114 4.8 8.0 0.00 0.00 0.00 49 1017.8
20260906060719 27 115 9.7 12.9 0.00 0.00 0.00 48 1017.8
20260906055219 27 139 9.7 16.1 0.00 0.00 0.00 47 1017.8
20260906053718 28 131 9.7 12.9 0.00 0.00 0.00 46 1017.8
20260906052218 28 121 8.0 14.5 0.00 0.00 0.00 45 1017.7
20260906050718 28 126 8.0 11.3 0.00 0.00 0.00 45 1017.7
20260906045218 28 124 4.8 11.3 0.00 0.00 0.00 44 1017.7
20260906043718 29 119 8.0 9.7 0.00 0.00 0.00 44 1017.7
20260906042218 29 123 3.2 8.0 0.00 0.00 0.00 43 1017.7
20260906040718 29 122 8.0 8.0 0.00 0.00 0.00 42 1017.7
20260906035218 29 114 4.8 16.1 0.00 0.00 0.00 42 1017.6
20260906033717 30 133 9.7 11.3 0.00 0.00 0.00 41 1017.7
20260906032217 30 130 4.8 11.3 0.00 0.00 0.00 40 1017.6
20260906030717 30 128 8.0 11.3 0.00 0.00 0.00 40 1017.3
20260906025217 30 130 9.7 14.5 0.00 0.00 0.00 39 1016.9
20260906023717 31 109 11.3 14.5 0.00 0.00 0.00 38 1016.6
20260906022217 31 114 11.3 24.1 0.00 0.00 0.00 38 1016.5
20260906020717 31 112 9.7 19.3 0.00 0.00 0.00 39 1016.5
20260906015217 31 91 9.7 11.3 0.00 0.00 0.00 39 1016.1
20260906013717 31 121 8.0 19.3 0.00 0.00 0.00 39 1015.7
20260906012217 32 111 8.0 12.9 0.00 0.00 0.00 38 1015.7
20260906010716 32 92 8.0 11.3 0.00 0.00 0.00 37 1015.6
20260906005216 32 111 11.3 12.9 0.00 0.00 0.00 36 1015.5
20260906003716 33 105 8.0 11.3 0.00 0.00 0.00 36 1015.5
20260906002216 33 112 11.3 14.5 0.00 0.00 0.00 36 1015.5
20260906000716 33 109 8.0 14.5 0.00 0.00 0.00 35 1015.2
20260905235216 34 118 1.6 4.8 0.00 0.00 0.00 32 1014.9
20260905233716 34 145 8.0 12.9 0.00 0.00 0.00 32 1014.6
20260905232216 34 127 8.0 9.7 0.00 0.00 0.00 32 1014.2
20260905230716 35 117 8.0 4.8 0.00 0.00 0.00 31 1014.3
20260905225216 35 108 11.3 19.3 0.00 0.00 0.00 30 1014.2
20260905223715 35 92 3.2 4.8 0.00 0.00 0.00 30 1014.3
20260905222215 35 131 8.0 12.9 0.00 0.00 0.00 30 1014.3
20260905220715 35 155 12.9 19.3 0.00 0.00 0.00 30 1014.5
20260905215215 35 146 16.1 20.9 0.00 0.00 0.00 31 1014.6
20260905213715 35 120 9.7 16.1 0.00 0.00 0.00 32 1014.8